Tracking 25710 objects as of 6-Jul-2022
HD Live streaming from Space Station
objects crossing your sky now

STARLINK-3045

Track STARLINK-3045 now!
10-day predictions
STARLINK-3045 is classified as:


NORAD ID: 49173
Int'l Code: 2021-082AV
Perigee: 582.2 km
Apogee: 586.2 km
Inclination: 70.0 °
Period: 96.2 minutes
Semi major axis: 6955 km
RCS: Unknown
Launch date: September 14, 2021
Source: United States (US)
Launch site: AIR FORCE WESTERN TEST RANGE (AFWTR)
aabbcc
Your satellite tracking list
Your tracking list is empty




NASA's NSSDC Master Catalog

Two Line Element Set (TLE):
1 49173U 21082AV  22186.35585681 -.00000430  00000-0 -29540-4 0  9990
2 49173  69.9991  61.1340 0002858 265.7077  94.3755 14.96722769 45264
Source of the keplerian elements: AFSPC